Ogden, UT

10:10 PM MDT on March 25, 2017 (GMT -0600)
Ogden-Hinckley

Weather History for KOGD - August, 2013

Change the Weather History Date:

Saturday, August 10, 2013

  Actual Average Record
Temperature  
Mean Temperature 78 °F -  
Max Temperature 91 °F 92 °F 100 °F (1935)
Min Temperature 66 °F 59 °F 46 °F (1974)
Cooling Degree Days 14    
Growing Degree Days 28 (Base 50)    
Moisture  
Dew Point 36 °F    
Average Humidity 23    
Maximum Humidity 35    
Minimum Humidity 11    
Precipitation  
Precipitation 0.00 in - - ()
Sea Level Pressure  
Sea Level Pressure 29.88 in    
Wind  
Wind Speed 6 mph (South)    
Max Wind Speed 13 mph    
Max Gust Speed 18 mph    
Visibility 10 miles    
Events      
Averages and records for this station are not official NWS values.
T = Trace of Precipitation, MM = Missing Value Source: NWS Daily Summary

Daily Weather History Graph

Daily Weather History Graph

Search for Another Location

Airport or City:

Trip Planner

Search our weather history database for the weather conditions in past years. The results will help you decide how hot, cold, wet, or windy it might be!

Date:

Astronomy

Aug. 10, 2013 Rise Set
Actual Time 6:32 AM MDT 8:33 PM MDT
Civil Twilight 6:02 AM MDT 9:03 PM MDT
Nautical Twilight 5:25 AM MDT 9:39 PM MDT
Astronomical Twilight 4:45 AM MDT 10:19 PM MDT
Moon 10:25 AM MDT (8/10) 10:13 PM MDT (8/10)
Length of Visible Light 15h 00m
Length of Day
14h 00m
Waxing Crescent, 14% of the Moon is Illuminated
Aug 10
Waxing Crescent
Aug 14
First Quarter
Aug 20
Full
Aug 28
Last Quarter
Sep 5
New

Hourly Weather History & Observations

Time (MDT) Temp. Dew Point Humidity Pressure Visibility Wind Dir Wind Speed Gust Speed Precip Events Conditions
12:53 AM 73.0 °F 37.0 °F 27% 29.85 in 10.0 mi SSE 4.6 mph - N/A   Clear
1:53 AM 69.1 °F 37.9 °F 32% 29.86 in 10.0 mi South 5.8 mph - N/A   Clear
2:53 AM 69.1 °F 37.0 °F 31% 29.86 in 10.0 mi South 8.1 mph - N/A   Clear
3:53 AM 66.9 °F 37.9 °F 34% 29.87 in 10.0 mi SSE 8.1 mph - N/A   Clear
4:53 AM 66.9 °F 37.0 °F 33% 29.88 in 10.0 mi South 5.8 mph - N/A   Clear
5:53 AM 66.9 °F 37.0 °F 33% 29.89 in 10.0 mi South 8.1 mph - N/A   Clear
6:53 AM 68.0 °F 37.0 °F 32% 29.92 in 10.0 mi South 8.1 mph - N/A   Clear
7:53 AM 68.0 °F 39.0 °F 35% 29.93 in 10.0 mi SW 5.8 mph - N/A   Clear
8:53 AM 73.0 °F 39.0 °F 29% 29.93 in 10.0 mi South 3.5 mph - N/A   Clear
9:53 AM 77.0 °F 39.9 °F 26% 29.94 in 10.0 mi West 5.8 mph - N/A   Clear
10:53 AM 80.1 °F 39.9 °F 24% 29.94 in 10.0 mi Calm Calm - N/A   Clear
11:53 AM 87.1 °F 36.0 °F 16% 29.93 in 10.0 mi South 11.5 mph 18.4 mph N/A   Clear
12:53 PM 89.1 °F 36.0 °F 15% 29.90 in 10.0 mi SSW 12.7 mph - N/A   Clear
1:53 PM 89.1 °F 30.9 °F 12% 29.89 in 10.0 mi South 6.9 mph - N/A   Partly Cloudy
2:53 PM 90.0 °F 32.0 °F 13% 29.87 in 10.0 mi WSW 10.4 mph - N/A   Partly Cloudy
3:53 PM 90.0 °F 28.9 °F 11% 29.86 in 10.0 mi South 4.6 mph - N/A   Clear
4:53 PM 91.0 °F 30.0 °F 11% 29.85 in 10.0 mi East 4.6 mph - N/A   Clear
5:53 PM 88.0 °F 30.9 °F 13% 29.84 in 10.0 mi West 3.5 mph - N/A   Clear
6:53 PM 89.1 °F 30.0 °F 12% 29.83 in 10.0 mi SSW 6.9 mph - N/A   Clear
7:53 PM 86.0 °F 36.0 °F 17% 29.83 in 10.0 mi South 11.5 mph - N/A   Clear
8:53 PM 82.0 °F 37.0 °F 20% 29.85 in 10.0 mi SSE 4.6 mph - N/A   Clear
9:53 PM 80.1 °F 37.0 °F 21% 29.86 in 10.0 mi SSE 6.9 mph - N/A   Clear
10:53 PM 77.0 °F 37.9 °F 24% 29.87 in 10.0 mi South 6.9 mph - N/A   Clear
11:53 PM 75.0 °F 37.0 °F 25% 29.86 in 10.0 mi South 8.1 mph - N/A   Clear